Weather History for Camp Pendleton, CA

Change the Weather History Date:

Wednesday, January 23, 2013

  Actual Average Record
Temperature  
Mean Temperature 60 °F -  
Max Temperature 77 °F 64 °F - (-1)
Min Temperature 44 °F 39 °F - (-1)
Degree Days  
Heating Degree Days 4    
Growing Degree Days 10 (Base 50)    
Moisture  
Dew Point 33 °F    
Average Humidity 38    
Maximum Humidity 55    
Minimum Humidity 17    
Precipitation  
Precipitation 0.00 in - - ()
Sea Level Pressure  
Sea Level Pressure 30.06 in    
Wind  
Wind Speed 1 mph (SE)    
Max Wind Speed 6 mph    
Max Gust Speed -    
Visibility 10 miles    
Events      
Averages and records for this station are not official NWS values.
T = Trace of Precipitation, MM = Missing Value Source: NWS Daily Summary

Daily Weather History Graph

Daily Weather History Graph

Search for Another Location

Airport:

Trip Planner

Search our weather history database for the weather conditions in past years. The results will help you decide how hot, cold, wet, or windy it might be!

Date:

Astronomy

Jan. 23, 2013 Rise Set
Actual Time 6:50 AM PST 5:12 PM PST
Civil Twilight 6:23 AM PST 5:39 PM PST
Nautical Twilight 5:53 AM PST 6:09 PM PST
Astronomical Twilight 5:24 AM PST 6:38 PM PST
Moon 2:29 PM PST (1/23) 4:03 AM PST (1/23)
Length of Visible Light 11h 15m
Length of Day
10h 22m
Waxing Gibbous, 90% of the Moon is Illuminated
Jan 23
Waxing Gibbous
Jan 26
Full
Feb 3
Last Quarter
Feb 9
New
Feb 17
First Quarter

Hourly Weather History & Observations

Time (PST) Temp. Dew Point Humidity Pressure Visibility Wind Dir Wind Speed Gust Speed Precip Events Conditions
12:54 AM 45.0 °F 27.0 °F 49% 30.04 in 10.0 mi Calm Calm - N/A   Clear
1:54 AM 44.1 °F 28.9 °F 55% 30.04 in 10.0 mi Calm Calm - N/A   Clear
2:54 AM 46.9 °F 28.0 °F 48% 30.04 in 10.0 mi Calm Calm - N/A   Clear
3:54 AM 46.9 °F 30.0 °F 52% 30.02 in 10.0 mi Calm Calm - N/A   Clear
4:54 AM 48.0 °F 30.9 °F 52% 30.02 in 10.0 mi Calm Calm - N/A   Clear
5:54 AM 50.0 °F 30.9 °F 48% 30.02 in 10.0 mi Calm Calm - N/A   Clear
6:54 AM 50.0 °F 30.9 °F 48% 30.04 in 10.0 mi Calm Calm - N/A   Mostly Cloudy
7:54 AM 54.0 °F 33.1 °F 45% 30.04 in 10.0 mi Calm Calm - N/A   Mostly Cloudy
8:54 AM 63.0 °F 34.0 °F 34% 30.05 in 10.0 mi Calm Calm - N/A   Mostly Cloudy
9:54 AM 69.1 °F 34.0 °F 27% 30.06 in 10.0 mi Calm Calm - N/A   Mostly Cloudy
10:54 AM 75.0 °F 35.1 °F 23% 30.06 in 10.0 mi Calm Calm - N/A   Mostly Cloudy
11:54 AM 77.0 °F 36.0 °F 23% 30.04 in 10.0 mi Calm Calm - N/A   Mostly Cloudy
12:54 PM 73.9 °F 28.9 °F 19% 30.04 in 10.0 mi SSW 3.5 mph - N/A   Mostly Cloudy
1:54 PM 73.9 °F 30.0 °F 20% 30.03 in 10.0 mi Calm Calm - N/A   Mostly Cloudy
2:54 PM 75.0 °F 30.0 °F 19% 30.04 in 10.0 mi Calm Calm - N/A   Mostly Cloudy
3:54 PM 73.0 °F 26.1 °F 17% 30.06 in 10.0 mi SSW 5.8 mph - N/A   Mostly Cloudy
4:54 PM 68.0 °F 33.1 °F 27% 30.07 in 10.0 mi SSW 4.6 mph - N/A   Overcast
5:54 PM 64.9 °F 37.0 °F 36% 30.09 in 10.0 mi Calm Calm - N/A   Overcast
6:54 PM 63.0 °F 37.0 °F 38% 30.10 in 10.0 mi NE 3.5 mph - N/A   Overcast
7:54 PM 61.0 °F 37.9 °F 42% 30.09 in 10.0 mi Calm Calm - N/A   Overcast
8:54 PM 59.0 °F 39.0 °F 48% 30.10 in 10.0 mi Calm Calm - N/A   Overcast
9:54 PM 59.0 °F 39.0 °F 48% 30.12 in 10.0 mi ENE 4.6 mph - N/A   Overcast
10:54 PM 57.9 °F 39.0 °F 49% 30.14 in 10.0 mi Calm Calm - N/A   Overcast
11:54 PM 57.9 °F 39.9 °F 51% 30.14 in 10.0 mi ENE 3.5 mph - N/A   Overcast